Location: Newark
(42.9277°N, 71.8621°W)
Time: 05:51:58
(UTC+00:00)

deb Explorer IX - All Passes

Search period start: 28 May 2020 00:00
Search period end: 07 June 2020 00:00
Orbit: 546 x 1101 km, 38.8° (Epoch: 27 May)

Date Brightness Start Highest point End Pass type
(mag) Time Alt. Az. Time Alt. Az. Time Alt. Az.
28 May - 01:40:39 10° WSW 01:45:20 50° S 01:50:51 10° E visible
28 May - 03:26:54 10° W 03:32:05 54° S 03:38:11 10° ESE visible
28 May - 05:13:42 10° W 05:18:50 32° SSW 05:24:38 10° SE visible
28 May - 07:03:04 10° WSW 07:05:13 12° SW 07:07:26 10° SSW night (unlit)
28 May - 23:33:06 10° SSW 23:36:32 22° SSE 23:40:18 10° E daylight
29 May - 01:18:12 10° WSW 01:22:46 49° S 01:28:04 10° E visible
29 May - 03:04:26 10° W 03:09:27 53° S 03:15:22 10° ESE visible
29 May - 04:51:12 10° W 04:56:10 31° SSW 05:01:46 10° SE visible
29 May - 06:40:52 10° SW 06:42:31 11° SW 06:44:14 10° SSW night (unlit)
29 May - 23:10:39 10° SSW 23:13:58 22° SSE 23:17:36 10° ESE daylight
30 May - 00:55:46 10° WSW 01:00:11 48° S 01:05:19 10° E visible
30 May - 02:41:58 10° W 02:46:51 52° S 02:52:33 10° ESE visible
30 May - 04:28:44 10° W 04:33:30 30° SSW 04:38:54 10° SE visible
30 May - 06:18:58 10° SW 06:19:50 10° SW 06:20:44 10° SSW night (unlit)
30 May - 22:48:11 10° SSW 22:51:25 21° SSE 22:54:55 10° ESE daylight
31 May - 00:33:18 10° WSW 00:37:37 48° S 00:42:33 10° E daylight
31 May - 02:19:31 10° W 02:24:13 51° S 02:29:45 10° ESE visible
31 May - 04:06:16 10° W 04:10:50 29° SSW 04:16:02 10° SE visible
31 May - 22:25:41 10° SSW 22:28:52 21° SSE 22:32:15 10° ESE daylight
01 Jun - 00:10:51 10° WSW 00:15:03 47° S 00:19:50 10° E daylight
01 Jun - 01:57:04 10° W 02:01:38 49° S 02:06:57 10° ESE visible
01 Jun - 03:43:49 10° W 03:48:12 27° SSW 03:53:10 10° SSE visible
01 Jun - 22:03:12 10° SSW 22:06:19 21° SSE 22:09:36 10° ESE daylight
01 Jun - 23:48:23 10° WSW 23:52:29 46° S 23:57:07 10° E daylight
02 Jun - 01:34:36 10° W 01:39:02 48° S 01:44:10 10° ESE visible
02 Jun - 03:21:23 10° W 03:25:34 26° SSW 03:30:18 10° SSE visible
02 Jun - 21:40:40 10° SSW 21:43:46 21° SSE 21:46:59 10° ESE daylight
02 Jun - 23:25:55 10° WSW 23:29:56 46° S 23:34:25 10° E daylight
03 Jun - 01:12:09 10° W 01:16:27 47° S 01:21:24 10° ESE visible
03 Jun - 02:58:56 10° WSW 03:02:56 25° SSW 03:07:26 10° SSE visible
03 Jun - 21:18:08 10° SSW 21:21:12 21° SSE 21:24:22 10° ESE daylight
03 Jun - 23:03:25 10° WSW 23:07:23 45° S 23:11:44 10° E daylight
04 Jun - 00:49:41 10° W 00:53:53 46° S 00:58:38 10° ESE visible
04 Jun - 02:36:31 10° WSW 02:40:19 24° SSW 02:44:35 10° SSE visible
04 Jun - 20:55:33 10° SSW 20:58:39 21° SSE 21:01:47 10° ESE daylight
04 Jun - 22:40:55 10° WSW 22:44:51 45° S 22:49:04 10° E daylight
05 Jun - 00:27:13 10° W 00:31:18 44° S 00:35:54 10° ESE daylight
05 Jun - 02:14:05 10° WSW 02:17:42 23° SSW 02:21:44 10° SSE visible
05 Jun - 20:32:58 10° SSW 20:36:06 21° SSE 20:39:14 10° ESE daylight
05 Jun - 22:18:23 10° WSW 22:22:18 45° S 22:26:26 10° E daylight
06 Jun - 00:04:44 10° W 00:08:44 43° S 00:13:11 10° ESE daylight
06 Jun - 01:51:39 10° WSW 01:55:06 21° SSW 01:58:54 10° SSE visible
06 Jun - 20:10:21 10° SSW 20:13:32 21° SSE 20:16:41 10° ESE daylight
06 Jun - 21:55:51 10° WSW 21:59:45 44° S 22:03:48 10° E daylight
06 Jun - 23:42:14 10° W 23:46:11 42° S 23:50:29 10° ESE daylight
